This is the latest recevied weather packets stored in our database for station/object VE3GIF. If no packets are shown the sender has not sent any weather packets the latest 10 day(s).
| Time | Temp. | Humidity | Pressure | Rain* | Wind** | Luminosity | Snow |
|---|---|---|---|---|---|---|---|
| 1777341685 | 8.89° C | 66% | 1015.5 hPa | 0 mm | - | - | - |
| 1777341085 | 9.44° C | 65% | 1015.8 hPa | 0 mm | - | - | - |
| 1777340785 | 10° C | 64% | 1015.8 hPa | 0 mm | - | - | - |
| 1777340484 | 10.56° C | 63% | 1016 hPa | 0 mm | - | - | - |
| 1777340184 | 10.56° C | 61% | 1016.1 hPa | 0 mm | - | - | - |
| 1777339884 | 11.11° C | 60% | 1016.2 hPa | 0 mm | - | - | - |
| 1777339583 | 12.22° C | 58% | 1016.2 hPa | 0 mm | - | - | - |
| 1777339283 | 12.78° C | 56% | 1016.2 hPa | 0 mm | - | - | - |
| 1777338983 | 12.78° C | 55% | 1016.2 hPa | 0 mm | - | - | - |
| 1777338683 | 12.78° C | 54% | 1016.3 hPa | 0 mm | - | - | - |
| 1777338382 | 12.78° C | 55% | 1016.4 hPa | 0 mm | - | - | - |
| 1777338082 | 12.78° C | 55% | 1016.3 hPa | 0 mm | - | - | - |
| 1777337782 | 12.78° C | 55% | 1016.4 hPa | 0 mm | - | - | - |
| 1777337481 | 12.78° C | 54% | 1016.5 hPa | 0 mm | - | - | - |
| 1777337181 | 12.78° C | 54% | 1016.5 hPa | 0 mm | - | - | - |
| 1777336881 | 12.78° C | 54% | 1016.8 hPa | 0 mm | - | - | - |
| 1777336581 | 12.78° C | 54% | 1016.9 hPa | 0 mm | - | - | - |
| 1777336280 | 12.78° C | 53% | 1016.9 hPa | 0 mm | - | - | - |
| 1777335980 | 12.78° C | 53% | 1016.9 hPa | 0 mm | - | - | - |
| 1777335680 | 12.78° C | 54% | 1017 hPa | 0 mm | - | - | - |
| 1777335379 | 12.78° C | 54% | 1017.1 hPa | 0 mm | - | - | - |
| 1777335079 | 12.22° C | 55% | 1017.1 hPa | 0 mm | - | - | - |
| 1777334779 | 12.22° C | 56% | 1017.2 hPa | 0 mm | - | - | - |
| 1777334479 | 12.22° C | 56% | 1017 hPa | 0 mm | - | - | - |
| 1777334178 | 12.22° C | 56% | 1017.1 hPa | 0 mm | - | - | - |
* Rain latest hour (hover to see other rain measurements)
** Current wind speed in m/s (hover to see current wind gust speed)